Location: Doughton Park
(36.4224°N, 81.1835°W)
Time: 10:03:58
(UTC-04:00)

ISS - All Passes

Search period start: 25 June 2016 00:00
Search period end: 05 July 2016 00:00
Orbit: 402 x 403 km, 51.6° (Epoch: 25 June)

Date Brightness Start Highest point End Pass type
(mag) Time Alt. Az. Time Alt. Az. Time Alt. Az.
25 Jun - 09:35:45 10° S 09:38:13 20° SE 09:40:42 10° E daylight
25 Jun - 11:11:30 10° WSW 11:14:30 33° NW 11:17:31 10° NNE daylight
25 Jun - 16:05:34 10° N 16:07:21 14° NNE 16:09:07 10° ENE daylight
25 Jun - 17:40:55 10° NW 17:44:12 88° SW 17:47:27 10° SE daylight
26 Jun - 10:18:27 10° SW 10:21:42 67° NW 10:24:57 10° NE daylight
26 Jun - 11:57:23 10° NW 11:58:39 12° NNW 11:59:56 10° N daylight
26 Jun - 16:48:16 10° NW 16:51:26 43° NE 16:54:34 10° ESE daylight
26 Jun - 18:25:38 10° W 18:27:35 15° SW 18:29:31 10° SSW daylight
27 Jun - 09:25:48 10° SSW 09:28:59 54° SE 09:32:10 10° ENE daylight
27 Jun - 11:03:21 10° WNW 11:05:39 17° NNW 11:07:56 10° NNE daylight
27 Jun - 15:55:48 10° NNW 15:58:33 24° NNE 16:01:18 10° E daylight
27 Jun - 17:32:05 10° WNW 17:35:00 30° SW 17:37:55 10° SSE daylight
28 Jun - 08:33:37 10° S 08:36:20 25° SE 08:39:04 10° ENE daylight
28 Jun - 10:09:49 10° W 10:12:42 28° NNW 10:15:35 10° NNE daylight
28 Jun - 15:03:31 10° NNW 15:05:35 15° NNE 15:07:39 10° ENE daylight
28 Jun - 16:39:05 10° NW 16:42:20 69° SW 16:45:34 10° SE daylight
29 Jun - 07:42:25 10° SSE 07:43:46 12° SE 07:45:07 10° ESE daylight
29 Jun - 09:16:39 10° WSW 09:19:50 53° NW 09:23:03 10° NE daylight
29 Jun - 10:56:08 10° NW 10:56:53 11° NNW 10:57:38 10° N daylight
29 Jun - 14:11:44 10° N 14:12:32 11° NNE 14:13:18 10° NE daylight
29 Jun - 15:46:21 10° NW 15:49:33 54° NE 15:52:46 10° ESE daylight
29 Jun - 17:24:19 10° WSW 17:25:38 12° SW 17:26:58 10° SSW daylight
30 Jun - 08:23:50 10° SW 08:27:04 70° SE 08:30:19 10° NE daylight
30 Jun - 10:01:46 10° WNW 10:03:48 15° NNW 10:05:52 10° NNE daylight
30 Jun - 14:53:48 10° NNW 14:56:42 28° NNE 14:59:34 10° E daylight
30 Jun - 16:30:20 10° WNW 16:33:03 25° SW 16:35:46 10° S daylight
01 Jul - 07:31:28 10° SSW 07:34:22 31° SE 07:37:18 10° ENE daylight
01 Jul - 09:08:05 10° W 09:10:49 24° NNW 09:13:33 10° NNE daylight
01 Jul - 14:01:25 10° NNW 14:03:43 17° NNE 14:06:01 10° ENE daylight
01 Jul - 15:37:11 10° WNW 15:40:23 54° SW 15:43:33 10° SSE daylight
02 Jul - 06:39:47 10° SSE 06:41:44 15° SE 06:43:42 10° E daylight
02 Jul - 08:14:46 10° WSW 08:17:53 43° NW 08:21:03 10° NE daylight
02 Jul - 13:09:22 10° N 13:10:39 12° NNE 13:11:56 10° NE daylight
02 Jul - 14:44:21 10° NW 14:47:37 68° NE 14:50:51 10° SE daylight
03 Jul - 07:21:49 10° SW 07:25:04 88° SE 07:28:20 10° NE daylight
03 Jul - 09:00:08 10° WNW 09:01:54 14° NNW 09:03:40 10° N daylight
03 Jul - 13:51:43 10° NNW 13:54:44 33° NE 13:57:44 10° ESE daylight
03 Jul - 15:28:32 10° W 15:31:01 20° SW 15:33:28 10° S daylight
04 Jul - 06:29:16 10° SSW 06:32:19 38° SE 06:35:23 10° ENE daylight
04 Jul - 08:06:17 10° W 08:08:51 21° NNW 08:11:25 10° NNE daylight
04 Jul - 12:59:15 10° NNW 13:01:46 20° NNE 13:04:16 10° E daylight
04 Jul - 14:35:13 10° WNW 14:38:20 42° SW 14:41:26 10° SSE daylight
